• în Republica Moldova
  • Lista ţărilor
  • Pe 7 zile
  • Temperatura apei
  • Hartă satelitară
  • Meteo pe hartă
  • Widget-uri
  • user-avatar
    Intrare

    Meteo pe oră la Lilyugino

    Astăzi, 14 Noiembrie, Miercuri

    Timp Temperatura Precipitaţii Vânt Presiune Umiditate
    00:00 -4°C° 0 mm 6 m/s 749 mmHg 51%
    01:00 -4°C° 0 mm 6 m/s 749 mmHg 53%
    02:00 -4°C° 0 mm 6 m/s 748 mmHg 54%
    03:00 -4°C° 0.3 mm 6 m/s 748 mmHg 58%
    04:00 -4°C° 0.3 mm 5 m/s 747 mmHg 62%
    05:00 -5°C° 0.3 mm 5 m/s 747 mmHg 65%
    06:00 -4°C° 0.2 mm 5 m/s 747 mmHg 65%
    07:00 -4°C° 0.2 mm 5 m/s 747 mmHg 65%
    08:00 -4°C° 0.2 mm 5 m/s 747 mmHg 65%
    09:00 -4°C° 0.3 mm 5 m/s 747 mmHg 67%
    10:00 -3°C° 0.3 mm 4 m/s 747 mmHg 69%
    11:00 -3°C° 0.3 mm 4 m/s 747 mmHg 71%
    12:00 -3°C° 0.2 mm 4 m/s 747 mmHg 71%
    13:00 -3°C° 0.2 mm 4 m/s 747 mmHg 72%
    14:00 -2°C° 0.2 mm 3 m/s 747 mmHg 72%
    15:00 -2°C° 0.1 mm 3 m/s 747 mmHg 73%
    16:00 -2°C° 0.1 mm 3 m/s 747 mmHg 73%
    17:00 -2°C° 0.1 mm 2 m/s 748 mmHg 74%
    18:00 -2°C° 0 mm 2 m/s 748 mmHg 76%
    19:00 -2°C° 0 mm 2 m/s 748 mmHg 77%
    20:00 -3°C° 0 mm 2 m/s 748 mmHg 79%
    21:00 -3°C° 0 mm 2 m/s 749 mmHg 80%
    22:00 -3°C° 0 mm 2 m/s 749 mmHg 81%
    23:00 -3°C° 0 mm 2 m/s 749 mmHg 82%

    Mâine, 15 Noiembrie, Joi

    Timp Temperatura Precipitaţii Vânt Presiune Umiditate
    00:00 -3°C° 0 mm 2 m/s 750 mmHg 84%
    01:00 -3°C° 0 mm 2 m/s 750 mmHg 85%
    02:00 -3°C° 0 mm 2 m/s 751 mmHg 86%
    03:00 0°C° 0.1 mm 1 m/s 751 mmHg 87%
    04:00 0°C° 0.1 mm 1 m/s 751 mmHg 87%
    05:00 0°C° 0.1 mm 1 m/s 751 mmHg 88%
    06:00 0°C° 0 mm 1 m/s 752 mmHg 89%
    07:00 0°C° 0 mm 1 m/s 752 mmHg 89%
    08:00 0°C° 0 mm 1 m/s 753 mmHg 90%
    09:00 0°C° 0 mm 1 m/s 753 mmHg 88%
    10:00 +1°C° 0 mm 1 m/s 754 mmHg 86%
    11:00 +1°C° 0 mm 1 m/s 754 mmHg 84%
    12:00 +1°C° 0.1 mm 1 m/s 754 mmHg 84%
    13:00 +1°C° 0.1 mm 1 m/s 755 mmHg 85%
    14:00 +2°C° 0.1 mm 1 m/s 755 mmHg 85%
    15:00 +1°C° 0.1 mm 1 m/s 756 mmHg 87%
    16:00 +1°C° 0.1 mm 1 m/s 756 mmHg 90%
    17:00 0°C° 0.1 mm 1 m/s 756 mmHg 92%
    18:00 0°C° 0 mm 1 m/s 757 mmHg 93%
    19:00 -1°C° 0 mm 1 m/s 757 mmHg 94%
    20:00 -1°C° 0 mm 1 m/s 757 mmHg 94%
    21:00 -1°C° 0 mm 1 m/s 757 mmHg 95%
    22:00 -1°C° 0 mm 1 m/s 758 mmHg 95%
    23:00 -1°C° 0 mm 1 m/s 758 mmHg 95%

    Poimâine, 16 Noiembrie, Vineri

    Timp Temperatura Precipitaţii Vânt Presiune Umiditate
    00:00 -1°C° 0 mm 1 m/s 758 mmHg 94%
    01:00 -1°C° 0 mm 1 m/s 759 mmHg 94%
    02:00 -1°C° 0 mm 1 m/s 759 mmHg 94%
    03:00 -1°C° 0 mm 1 m/s 759 mmHg 94%
    04:00 -1°C° 0 mm 1 m/s 759 mmHg 94%
    05:00 -1°C° 0 mm 1 m/s 760 mmHg 94%
    06:00 -1°C° 0 mm 1 m/s 760 mmHg 94%
    07:00 -1°C° 0 mm 1 m/s 760 mmHg 95%
    08:00 -1°C° 0 mm 1 m/s 760 mmHg 95%
    09:00 0°C° 0 mm 1 m/s 760 mmHg 92%
    10:00 +1°C° 0 mm 1 m/s 761 mmHg 89%
    11:00 +2°C° 0 mm 1 m/s 761 mmHg 86%
    12:00 +2°C° 0 mm 1 m/s 761 mmHg 87%
    13:00 +2°C° 0 mm 1 m/s 761 mmHg 87%
    14:00 +2°C° 0 mm 1 m/s 761 mmHg 88%
    15:00 +1°C° 0 mm 1 m/s 761 mmHg 90%
    16:00 0°C° 0 mm 1 m/s 761 mmHg 93%
    17:00 0°C° 0 mm 1 m/s 761 mmHg 95%
    18:00 0°C° 0 mm 1 m/s 760 mmHg 95%
    19:00 -3°C° 0 mm 2 m/s 760 mmHg 95%
    20:00 -3°C° 0 mm 2 m/s 760 mmHg 95%
    21:00 -3°C° 0 mm 2 m/s 760 mmHg 95%
    22:00 -3°C° 0 mm 2 m/s 760 mmHg 96%
    23:00 -3°C° 0 mm 2 m/s 760 mmHg 96%

    17 Noiembrie, Sâmbătă

    Timp Temperatura Precipitaţii Vânt Presiune Umiditate
    00:00 -3°C° 0 mm 2 m/s 760 mmHg 96%
    01:00 -3°C° 0 mm 2 m/s 760 mmHg 95%
    02:00 -2°C° 0 mm 2 m/s 760 mmHg 95%
    03:00 -2°C° 0 mm 3 m/s 759 mmHg 95%
    04:00 -2°C° 0 mm 3 m/s 759 mmHg 95%
    05:00 -2°C° 0 mm 3 m/s 758 mmHg 94%
    06:00 -2°C° 0 mm 3 m/s 758 mmHg 93%
    07:00 -1°C° 0 mm 3 m/s 758 mmHg 93%
    08:00 -1°C° 0 mm 3 m/s 757 mmHg 92%
    09:00 -1°C° 0.1 mm 3 m/s 757 mmHg 92%
    10:00 0°C° 0.1 mm 3 m/s 756 mmHg 91%
    11:00 -1°C° 0.1 mm 4 m/s 756 mmHg 91%
    12:00 0°C° 0 mm 4 m/s 755 mmHg 92%
    13:00 0°C° 0 mm 4 m/s 754 mmHg 92%
    14:00 0°C° 0 mm 4 m/s 754 mmHg 93%
    15:00 0°C° 0 mm 4 m/s 753 mmHg 93%
    16:00 0°C° 0 mm 4 m/s 752 mmHg 93%
    17:00 0°C° 0 mm 4 m/s 751 mmHg 93%
    18:00 0°C° 0.1 mm 4 m/s 750 mmHg 93%
    19:00 0°C° 0.1 mm 4 m/s 749 mmHg 94%
    20:00 0°C° 0.1 mm 4 m/s 749 mmHg 94%
    21:00 0°C° 0.1 mm 4 m/s 748 mmHg 94%
    22:00 +1°C° 0.1 mm 3 m/s 747 mmHg 94%
    23:00 +1°C° 0.1 mm 3 m/s 746 mmHg 94%

    18 Noiembrie, Duminică

    Timp Temperatura Precipitaţii Vânt Presiune Umiditate
    00:00 +1°C° 0.1 mm 3 m/s 746 mmHg 94%
    01:00 +1°C° 0.1 mm 3 m/s 745 mmHg 95%
    02:00 +1°C° 0.1 mm 3 m/s 745 mmHg 95%
    03:00 +1°C° 0.1 mm 3 m/s 744 mmHg 95%
    04:00 +1°C° 0.1 mm 3 m/s 743 mmHg 95%
    05:00 +1°C° 0.1 mm 3 m/s 743 mmHg 94%
    06:00 +1°C° 0.1 mm 3 m/s 743 mmHg 94%
    07:00 +1°C° 0.1 mm 3 m/s 742 mmHg 94%
    08:00 +1°C° 0.1 mm 3 m/s 742 mmHg 94%
    09:00 +1°C° 0.1 mm 3 m/s 742 mmHg 93%
    10:00 +1°C° 0.1 mm 3 m/s 742 mmHg 93%
    11:00 +2°C° 0.1 mm 3 m/s 742 mmHg 92%
    12:00 +1°C° 0.1 mm 3 m/s 742 mmHg 92%
    13:00 +1°C° 0.1 mm 3 m/s 743 mmHg 92%
    14:00 +2°C° 0.1 mm 2 m/s 743 mmHg 93%
    15:00 +2°C° 0.1 mm 2 m/s 743 mmHg 93%
    16:00 +1°C° 0.1 mm 3 m/s 743 mmHg 94%
    17:00 0°C° 0.1 mm 3 m/s 743 mmHg 95%
    18:00 0°C° 0.1 mm 3 m/s 744 mmHg 94%
    19:00 0°C° 0.1 mm 3 m/s 744 mmHg 94%
    20:00 0°C° 0.1 mm 3 m/s 744 mmHg 94%
    21:00 0°C° 0.1 mm 3 m/s 745 mmHg 94%
    22:00 0°C° 0.1 mm 3 m/s 745 mmHg 94%
    23:00 0°C° 0.1 mm 3 m/s 745 mmHg 94%

    19 Noiembrie, Luni

    Timp Temperatura Precipitaţii Vânt Presiune Umiditate
    00:00 0°C° 0.1 mm 3 m/s 746 mmHg 93%
    01:00 0°C° 0.1 mm 3 m/s 746 mmHg 93%
    02:00 0°C° 0.1 mm 3 m/s 747 mmHg 93%
    03:00 -1°C° 0.1 mm 4 m/s 747 mmHg 92%
    04:00 -1°C° 0.1 mm 4 m/s 748 mmHg 91%
    05:00 -1°C° 0.1 mm 4 m/s 749 mmHg 90%
    06:00 -1°C° 0 mm 4 m/s 749 mmHg 90%
    07:00 -1°C° 0 mm 4 m/s 750 mmHg 90%
    08:00 -1°C° 0 mm 4 m/s 751 mmHg 90%
    09:00 -1°C° 0.1 mm 5 m/s 751 mmHg 88%
    10:00 -1°C° 0.1 mm 5 m/s 752 mmHg 87%
    11:00 -1°C° 0.1 mm 5 m/s 753 mmHg 85%
    12:00 -1°C° 0 mm 5 m/s 753 mmHg 81%
    13:00 -1°C° 0 mm 5 m/s 754 mmHg 77%
    14:00 -2°C° 0 mm 5 m/s 754 mmHg 74%
    15:00 -2°C° 0 mm 4 m/s 755 mmHg 74%
    16:00 -3°C° 0 mm 4 m/s 755 mmHg 75%
    17:00 -4°C° 0 mm 4 m/s 756 mmHg 76%
    18:00 -4°C° 0 mm 3 m/s 756 mmHg 78%
    19:00 -4°C° 0 mm 3 m/s 757 mmHg 80%
    20:00 -4°C° 0 mm 3 m/s 757 mmHg 82%
    21:00 -4°C° 0 mm 3 m/s 757 mmHg 82%
    22:00 -4°C° 0 mm 3 m/s 758 mmHg 81%
    23:00 -3°C° 0 mm 2 m/s 758 mmHg 80%
    Arată mai mult